Orbital Elements at Epoch 2459200.5 (2020-Dec-17.0) TDB
Reference: JPL 18 (heliocentric ecliptic J2000)
Element | Value | Uncertainty (1-sigma) | Units |
e | .04973236637394569 | 7.2057e-08 | |
a | 2.335076501255786 | 1.1313e-08 | au |
q | 2.218947621184141 | 1.6819e-07 | au |
i | 6.798309491459976 | 6.8355e-06 | deg |
node | 40.3415839173359 | 3.7688e-05 | deg |
peri | 164.6960774895337 | 5.9193e-05 | deg |
M | 303.4726390394395 | 4.8779e-05 | deg |
tp | 2459405.147435450059 (2021-Jul-09.64743545) | 0.00017724 | TDB |
period | 1303.31711068952 3.57 | 9.4715e-06 2.593e-08 | d yr |
n | .2762182718598254 | 2.0073e-09 | deg/d |
Q | 2.45120538132743 | 1.1876e-08 | au |
|
| | Orbit Determination Parameters
Additional Information
|